www.pogodaiklimat.ru

Погода и климат >> Архив погоды >> Россия >> Магаданская область >> Эвенск


ПОГОДА в Эвенске

  • Прогноз погоды в Эвенске
  • Монитор погоды в Эвенске
  • Климат города

АРХИВ ПОГОДЫ в Эвенске

Время (UTC), дата Ветер
(напр.,м/с)
 
Видим.   Явления Облачность Т
(С)
Тd
(С)
f
(%)
Тe
(С)
Тes
(С)
Комфортность P
(гПа)
Po
(гПа)
Тmin
(С)
Tmax
(С)
R
(мм)
R24
(мм)
S
(см)
06 17.05 ЮВ 1 10 км 10/10 330 м
[St]
+2.6 -0.2 82 +1 +1 1011.2 1009.7
09 17.05 В 1 10 км 10/10 300 м
[St]
+2.0 -0.2 85 0 0 1011.3 1009.8 +4.5 0.0
12 17.05 штиль 0 н/о н/о +2.0 +0.3 88 +1 +1 1011.2 1009.7
15 17.05 СВ 1 н/о н/о +1.4 +0.1 91 -1 -1 1010.3 1008.8
18 17.05 С 1 н/о н/о +1.9 +0.3 89 0 0 1009.7 1008.2
21 17.05 СВ 2 50 км 8/8 600 м
[Sc]
+5.8 +1.1 72 +4 +5 1008.7 1007.2 +1.3
00 18.05 50 км н/о +9.3 +1.0 56 +9 +15 1007.3 1005.8
03 18.05 50 км н/о +9.3 +1.0 56 +9 +15 1007.3 1005.8
06 18.05 ЮЗ 3 50 км 4/4 600 м
[Cu med, cong]
+10.8 +1.3 52 +9 +12 1005.8 1004.4
09 18.05 штиль 0 50 км 9/8 1000 м
[Sc Ac trans]
+8.6 +3.0 68 +8 +8 1004.3 1002.8 +13.2
12 18.05 С 2 н/о н/о +6.1 +1.3 71 +4 +4 1004.8 1003.4
15 18.05 СВ 4 н/о н/о +4.3 +0.3 75 0 0 1004.5 1003.0
18 18.05 СВ 2 н/о н/о +3.3 -0.0 79 0 0 1004.8 1003.3
21 18.05 СВ 2 50 км 8/4 600 м
[Cb calv Ac trans]
+6.7 +0.5 65 +5 +7 1005.2 1003.7 +2.5
00 19.05 ЮЗ 3 50 км 10/6 600 м
[Cb calv Ac und]
+5.1 +1.8 79 +2 +3 1004.5 1003.1
03 19.05 ЮЗ 5 10 км осадки на расстоянии 10/8 600 м
[Cb calv Ac und]
+4.5 +2.0 84 -0 0 1003.8 1002.4
06 19.05 ЮЗ 3 2000 м ливневой снег 10/10 210 м
[Cb cap]
+0.8 0.0 94 -4 -4 1004.3 1002.9
09 19.05 ЮВ 1 2000 м ливневой снег 10/10 200 м
[Cb cap]
+0.7 +0.1 96 -1 -1 1004.3 1002.8 +8.9 6
12 19.05 Ю 1 н/о н/о +1.4 +0.7 95 -1 -1 1004.4 1002.9
15 19.05 Ю 2 н/о н/о +1.5 +0.9 96 -2 -2 1004.2 1002.8
18 19.05 В 1 н/о н/о +1.4 +0.3 92 -1 -1 1004.0 1002.5
21 19.05 СВ 2 4000 м слабый ливневой дождь 10/6 600 м
[Cb cap]
+1.6 +0.4 92 -2 -1 1002.6 1001.2 +0.6 2
00 20.05 СВ 5 10 км в посл. час ливневой дождь 10/10 600 м
[Cb cap]
+5.1 +2.1 81 +1 +1 999.8 998.4
03 20.05 СВ 3-10
{12}
50 км 9/8 600 м
[Cb calv Ac trans]
+7.3 +1.2 65 +5 +6 995.9 994.4
06 20.05 В 2
{10}
50 км 10/8 600 м
[Cb calv Ac trans]
+7.7 -0.2 57 +6 +7 993.5 992.0
09 20.05 СВ 3
{11}
50 км 10/5 600 м
[Cb calv Ac und]
+5.4 +0.1 69 +2 +2 991.5 990.1 +9.0 0.0
12 20.05 СВ 3
{14}
н/о н/о +3.9 +1.5 84 0 0 990.2 988.8
15 20.05 СВ 8-15
{15}
н/о н/о +3.1 +0.7 84 -3 -3 987.8 986.4
18 20.05 СВ 8-15
{16}
н/о н/о +2.1 +0.3 88 -5 -5 986.1 984.7
21 20.05 СВ 6-14
{15}
20 км {ливн. осадки} 10/8 600 м
[Cb calv Ac und]
+3.3 +0.7 83 -2 -2 985.8 984.3 +1.9 10
00 21.05 СВ 5-17
{15}
20 км слабый ливневой дождь 10/8 600 м
[Cb cap Ac und]
+5.6 +1.4 74 +1 +2 985.3 983.9
03 21.05 СВ 4-13
{17}
20 км слабый ливневой дождь 10/8 600 м
[Cb cap Ac und]
+6.6 +2.1 73 +3 +4 985.7 984.3
06 21.05 СВ 6-15
{16}
10 км слабый ливневой дождь 10/8 600 м
[Cb cap Ac und]
+5.3 +1.5 76 0 +1 987.3 985.9
09 21.05 СВ 5-10
{15}
20 км {ливн. осадки} 9/6 600 м
[Cb calv Ac trans Ci fib]
+3.6 +0.7 81 -1 -1 989.3 987.9 +6.7 0.0
12 21.05 СВ 5
{14}
н/о н/о +3.0 +0.1 81 -2 -2 990.9 989.5
15 21.05 СВ 6
{12}
н/о н/о +3.1 -0.4 78 -3 -3 991.8 990.4
18 21.05 СВ 7-11
{12}
н/о н/о +3.6 -0.7 73 -2 -2 993.1 991.6
21 21.05 СВ 7-13
{13}
50 км 10/5 600 м
[Cb calv Ac und]
+5.0 -0.8 66 -0 0 994.0 992.5 +2.7
00 22.05 СВ 6-11
{14}
20 км слабый ливневой дождь 10/10 360 м
[Cb cap]
+4.5 +0.6 76 -1 -1 995.3 993.8
03 22.05 СВ 6-12
{14}
20 км слабый ливневой дождь 10/8 300 м
[Cb cap Ac und]
+5.4 +0.6 71 +1 +1 996.1 994.7
06 22.05 СВ 5
{12}
50 км в посл. час ливневой дождь 9/8 300 м
[Cb calv Ac trans]
+6.8 -0.4 60 +3 +4 996.8 995.4
09 22.05 СВ 5
{12}
50 км 9/6 600 м
[Cb calv Ac trans Ci fib]
+4.7 -0.8 67 0 0 998.9 997.5 +6.9 0.3
12 22.05 штиль 0
{10}
н/о н/о +3.1 -1.6 71 +2 +2 1000.4 998.9
15 22.05 СВ 3 н/о н/о +3.3 -1.2 72 -0 -0 1001.0 999.5
18 22.05 СВ 2 н/о н/о +3.6 -0.2 76 +1 +1 1002.0 1000.5
21 22.05 С 5-10
{10}
50 км 9/8 600 м
[Cb calv Ac und]
+6.1 -1.6 58 +2 +3 1003.4 1002.0 +2.8
00 23.05 СВ 6-12
{12}
50 км 9/6 600 м
[Cb calv Ci fib]
+8.7 -1.6 48 +5 +7 1004.0 1002.6
03 23.05 С 5-10
{12}
50 км 9/8 600 м
[Cb calv Ci fib]
+10.1 -2.5 41 +8 +9 1004.7 1003.2
06 23.05 С 6-10
{12}
50 км 8/6 600 м
[Cb calv Ci fib]
+10.5 -4.4 35 +8 +9 1005.4 1004.0
09 23.05 С 2
{11}
50 км 6/4 600 м
[Cb calv Ac trans]
+8.5 -3.2 44 +7 +7 1007.1 1005.7 +11.0
12 23.05 СВ 1 н/о н/о +4.9 -2.1 60 +4 +4 1008.5 1007.0
15 23.05 СВ 2 н/о н/о +0.3 -3.2 77 -3 -3 1009.2 1007.7
18 23.05 С 2 н/о н/о +0.4 -3.3 76 -3 -3 1009.9 1008.4
21 23.05 Ю 1 50 км 3/0
[Ac trans]
+8.2 -1.9 49 +8 +13 1010.9 1009.5 -1.1
00 24.05 Ю 2 50 км 4/4 600 м
[Cb calv]
+8.1 0.0 57 +7 +14 1011.3 1009.9
03 24.05 Ю 3 50 км 6/6 600 м
[Cb calv]
+9.0 +0.2 54 +7 +11 1011.7 1010.3

 

Местоположение метеостанции Эвенск (Магаданская область, Россия): широта 61.92 долгота 159.20 высота над уровнем моря 12 м.

В архиве по умолчанию представлена погода в Эвенске за последнюю неделю. Архивные данные за месяц целиком и за предыдущие месяцы, начиная с января 2011 года, Вы можете получить, выбрав интересующий диапазон дат из раскрывающегося списка и нажав кнопку "Ввод!".

Внимание! Время в таблицах - всемирное. Для получения местного времени необходимо прибавить поправку, которая в Эвенске равна 11 ч.

Смотрите также архив погоды в соседних городах и на ближайших метеорологических станциях:

Погода в Лабазной (Магаданская область, Россия) (158 км)
Погода в Омсукчане (Магаданская область, Россия) (188 км)
Погода в Шелихова (Магаданская область, Россия) (225 км)
Погода в Чемурнауте (Камчатский край, Россия) (242 км)
Погода в Кегали (Магаданская область, Россия) (275 км)
Погода в Палане (Камчатский край, Россия) (318 км)
Погода в Балыгычане (Магаданская область, Россия) (340 км)
Погода в Верхне-Пенжино (Камчатский край, Россия) (359 км)
Погода в Среднекане (Магаданская область, Россия) (363 км)
Погода в Оссоре (Камчатский край, Россия) (364 км)

Пояснения к столбцам:

Ветер - указаны скорость ветра в м/с - средняя за 10 мин, порывы в срок и между сроками (в фигурных скобках) и направление, откуда дует ветер: С - северный, СВ - северо-восточный, В - восточный, ЮВ - юго-восточный, Ю - южный, ЮЗ - юго-западный, З - западный, СЗ - северо-западный.
Видимость - горизонтальная дальность видимости в метрах или километрах. При видимости от 1 до 10 км при отсутствии осадков обычно наблюдается дымка, при ухудшении видимости до 1 км и менее - туман. В сухую погоду видимость может ухудшаться дымом, пылью или мглою.
Явления - указаны атмосферные явления, наблюдавшиеся в срок или в последний час перед сроком; фигурными скобками обозначены явления, наблюдавшиеся между сроками (за 1-3 часа до срока); квадратными скобками обозначены град или гололедные отложения с указанием их диаметра в мм.
Облачность - указаны через наклонную черту общая и нижняя облачность в баллах и высота нижней границы облаков в метрах; квадратными скобками обозначены формы облаков: Ci - перистые, Cs - перисто-слоистые, Cc - перисто-кучевые, Ac - высококучевые, As - высокослоистые, Sc - слоисто-кучевые, Ns - слоисто-дождевые, Cu - кучевые, Cb - кучево-дождевые. Подробнее классификацию облаков см. в Атласе облаков (PDF).
T - Температура воздуха - температура, измеренная на высоте 2 м над землей.
Td - Температура точки росы - температура, при понижении до которой содержащийся в воздухе водяной пар достигнет насыщения.
f - Относительная влажность воздуха - влажноcть воздуха, измеренная на высоте 2 м над землей.
Te - Эффективная температура - температура, которую ощущает одетый по сезону человек в тени. Характеристика душности погоды. При расчете учитывается влияние влажности воздуха и скорости ветра на теплоощущения человека.
Tes - Эффективная температура на солнце - температура, которую ощущает человек, с поправкой на солнечный нагрев. Характеристика знойности погоды. Зависит от высоты солнца над горизонтом, облачности и скорости ветра. Ночью, в пасмурную погоду, а также при ветре 12 м/с и более поправка равна нулю.
P - Атмосферное давление - приведенное к уровню моря атмосферное давление.
Po - Атмосферное давление - измеренное на уровне метеостанции атмосферное давление.
Tmin - Минимальная температура - минимум температуры воздуха на высоте 2 м над землей.
Tmax - Максимальная температура - максимум температуры воздуха на высоте 2 м над землей.
R - Количество осадков - Количество выпавших осадков за период времени, мм. При наведении курсора мыши на число - период времени, за который выпало указанное количество осадков.
R24 - Количество осадков - Количество выпавших осадков за 24 часа, мм.
S - Снежный покров - Высота снежного покрова, см. При наведении курсора мыши на число - состояние снежного покрова и степень покрытия местности в баллах.